Ada, OK

8:57 AM CDT on September 27, 2016 (GMT -0500)
Ada Municipal

Weather History for KADH - December, 2012

Change the Weather History Date:

Saturday, December 8, 2012

  Actual Average Record
Temperature  
Mean Temperature 48 °F -  
Max Temperature 55 °F 54 °F 75 °F (1991)
Min Temperature 41 °F 33 °F 9 °F (1927)
Degree Days  
Heating Degree Days 17    
Moisture  
Dew Point 46 °F    
Average Humidity 92    
Maximum Humidity 100    
Minimum Humidity 72    
Precipitation  
Precipitation 0.00 in - - ()
Sea Level Pressure  
Sea Level Pressure 29.87 in    
Wind  
Wind Speed 3 mph (NE)    
Max Wind Speed 10 mph    
Max Gust Speed -    
Visibility 7 miles    
Events      
Averages and records for this station are not official NWS values.
T = Trace of Precipitation, MM = Missing Value Source: NWS Daily Summary

Daily Weather History Graph

Daily Weather History Graph

Search for Another Location

Airport or City:

Trip Planner

Search our weather history database for the weather conditions in past years. The results will help you decide how hot, cold, wet, or windy it might be!

Date:

Astronomy

Dec. 08, 2012 Rise Set
Actual Time 7:22 AM CST 5:15 PM CST
Civil Twilight 6:54 AM CST 5:43 PM CST
Nautical Twilight 6:22 AM CST 6:14 PM CST
Astronomical Twilight 5:52 AM CST 6:45 PM CST
Moon 1:58 AM CST (12/8) 1:37 PM CST (12/8)
Length of Visible Light 10h 49m
Length of Day
9h 53m
Waning Crescent, 28% of the Moon is Illuminated
Dec 8
Waning Crescent
Dec 13
New
Dec 19
First Quarter
Dec 28
Full
Jan 4
Last Quarter

Hourly Weather History & Observations

Time (CST) Temp. Windchill Dew Point Humidity Pressure Visibility Wind Dir Wind Speed Gust Speed Precip Events Conditions
12:15 AM 44.6 °F 42.2 °F 44.6 °F 100% 29.90 in 7.0 mi NW 4.6 mph - N/A   Scattered Clouds
12:35 AM 44.6 °F 43.1 °F 44.6 °F 100% 29.90 in 7.0 mi NW 3.5 mph - N/A   Clear
12:55 AM 44.6 °F 41.4 °F 44.6 °F 100% 29.90 in 7.0 mi NW 5.8 mph - N/A   Clear
1:15 AM 44.6 °F 43.1 °F 44.6 °F 100% 29.89 in 7.0 mi NW 3.5 mph - N/A   Clear
1:35 AM 44.6 °F 43.1 °F 44.6 °F 100% 29.90 in 5.0 mi NW 3.5 mph - N/A   Clear
1:55 AM 42.8 °F - 42.8 °F 100% 29.90 in 2.0 mi Calm Calm - N/A   Clear
2:15 AM 42.8 °F - 42.8 °F 100% 29.90 in 3.0 mi Calm Calm - N/A   Clear
2:35 AM 42.8 °F - 42.8 °F 100% 29.90 in 5.0 mi Calm Calm - N/A   Clear
2:55 AM 41.0 °F - 41.0 °F 100% 29.91 in 3.0 mi Calm Calm - N/A   Clear
3:15 AM 42.8 °F - 42.8 °F 100% 29.91 in 3.0 mi Calm Calm - N/A   Clear
3:35 AM 42.8 °F 41.1 °F 42.8 °F 100% 29.91 in 2.5 mi North 3.5 mph - N/A   Clear
3:55 AM 42.8 °F 41.1 °F 42.8 °F 100% 29.91 in 2.0 mi North 3.5 mph - N/A   Scattered Clouds
4:15 AM 41.0 °F - 41.0 °F 100% 29.91 in 2.5 mi Calm Calm - N/A   Mostly Cloudy
4:35 AM 42.8 °F - 42.8 °F 100% 29.92 in 1.2 mi Calm Calm - N/A   Overcast
4:55 AM 42.8 °F 41.1 °F 42.8 °F 100% 29.92 in 5.0 mi NE 3.5 mph - N/A   Overcast
5:15 AM 44.6 °F - 44.6 °F 100% 29.92 in 5.0 mi Calm Calm - N/A   Overcast
5:35 AM 44.6 °F 39.7 °F 44.6 °F 100% 29.92 in 5.0 mi NNE 9.2 mph - N/A   Overcast
5:55 AM 44.6 °F 39.2 °F 44.6 °F 100% 29.92 in 4.0 mi NNE 10.4 mph - N/A   Overcast
6:15 AM 44.6 °F 40.7 °F 44.6 °F 100% 29.92 in 4.0 mi NNE 6.9 mph - N/A   Overcast
6:35 AM 44.6 °F 40.7 °F 44.6 °F 100% 29.93 in 3.0 mi North 6.9 mph - N/A   Overcast
6:55 AM 44.6 °F 42.2 °F 44.6 °F 100% 29.93 in 3.0 mi NNE 4.6 mph - N/A   Overcast
7:15 AM 44.6 °F 41.4 °F 44.6 °F 100% 29.93 in 3.0 mi NNE 5.8 mph - N/A   Overcast
7:35 AM 44.6 °F - 44.6 °F 100% 29.93 in 2.5 mi Calm Calm - N/A   Overcast
7:55 AM 44.6 °F - 44.6 °F 100% 29.93 in 3.0 mi Calm Calm - N/A   Overcast
8:15 AM 46.4 °F - 46.4 °F 100% 29.93 in 3.0 mi Calm Calm - N/A   Overcast
8:35 AM 46.4 °F - 46.4 °F 100% 29.93 in 3.0 mi Calm Calm - N/A   Overcast
8:55 AM 46.4 °F - 46.4 °F 100% 29.93 in 3.0 mi Calm Calm - N/A   Overcast
9:15 AM 46.4 °F 45.2 °F 46.4 °F 100% 29.93 in 3.0 mi ENE 3.5 mph - N/A   Overcast
9:35 AM 46.4 °F 43.5 °F 46.4 °F 100% 29.93 in 5.0 mi East 5.8 mph - N/A   Overcast
9:55 AM 46.4 °F 41.9 °F 46.4 °F 100% 29.94 in 5.0 mi East 9.2 mph - N/A   Overcast
10:15 AM 46.4 °F 44.3 °F 46.4 °F 100% 29.94 in 5.0 mi ENE 4.6 mph - N/A   Overcast
10:35 AM 46.4 °F 45.2 °F 46.4 °F 100% 29.94 in 5.0 mi East 3.5 mph - N/A   Overcast
10:55 AM 48.2 °F - 46.4 °F 93% 29.93 in 7.0 mi ESE 4.6 mph - N/A   Overcast
11:15 AM 48.2 °F - 46.4 °F 93% 29.92 in 7.0 mi SE 3.5 mph - N/A   Overcast
11:35 AM 48.2 °F - 46.4 °F 93% 29.91 in 7.0 mi Calm Calm - N/A   Overcast
11:55 AM 50.0 °F - 46.4 °F 87% 29.90 in 10.0 mi SSE 3.5 mph - N/A   Overcast
12:15 PM 50.0 °F - 46.4 °F 87% 29.89 in 10.0 mi ESE 3.5 mph - N/A   Overcast
12:35 PM 51.8 °F - 46.4 °F 82% 29.88 in 7.0 mi Calm Calm - N/A   Overcast
12:55 PM 50.0 °F - 46.4 °F 87% 29.87 in 10.0 mi Calm Calm - N/A   Mostly Cloudy
1:15 PM 51.8 °F - 46.4 °F 82% 29.86 in 10.0 mi Calm Calm - N/A   Overcast
1:35 PM 53.6 °F - 46.4 °F 77% 29.85 in 10.0 mi SW 3.5 mph - N/A   Mostly Cloudy
1:55 PM 53.6 °F - 46.4 °F 77% 29.85 in 10.0 mi Calm Calm - N/A   Scattered Clouds
2:15 PM 55.4 °F - 46.4 °F 72% 29.83 in 10.0 mi Calm Calm - N/A   Mostly Cloudy
2:35 PM 53.6 °F - 46.4 °F 77% 29.83 in 10.0 mi Calm Calm - N/A   Overcast
2:55 PM 53.6 °F - 46.4 °F 77% 29.83 in 10.0 mi Calm Calm - N/A   Overcast
3:15 PM 55.4 °F - 46.4 °F 72% 29.83 in 10.0 mi Calm Calm - N/A   Overcast
3:35 PM 55.4 °F - 46.4 °F 72% 29.82 in 10.0 mi Calm Calm - N/A   Overcast
3:55 PM 55.4 °F - 48.2 °F 77% 29.82 in 10.0 mi Calm Calm - N/A   Overcast
4:15 PM 55.4 °F - 48.2 °F 77% 29.82 in 10.0 mi South 3.5 mph - N/A   Overcast
4:35 PM 55.4 °F - 48.2 °F 77% 29.82 in 10.0 mi Calm Calm - N/A   Overcast
4:55 PM 55.4 °F - 48.2 °F 77% 29.82 in 10.0 mi Calm Calm - N/A   Overcast
5:15 PM 55.4 °F - 48.2 °F 77% 29.81 in 10.0 mi Calm Calm - N/A   Overcast
5:35 PM 53.6 °F - 48.2 °F 82% 29.82 in 10.0 mi NNE 3.5 mph - N/A   Overcast
5:55 PM 53.6 °F - 48.2 °F 82% 29.82 in 10.0 mi North 3.5 mph - N/A   Overcast
6:15 PM 53.6 °F - 48.2 °F 82% 29.82 in 10.0 mi Calm Calm - N/A   Overcast
6:35 PM 53.6 °F - 48.2 °F 82% 29.82 in 10.0 mi Calm Calm - N/A   Overcast
6:55 PM 53.6 °F - 48.2 °F 82% 29.82 in 10.0 mi Calm Calm - N/A   Overcast
7:15 PM 53.6 °F - 48.2 °F 82% 29.82 in 10.0 mi Calm Calm - N/A   Overcast
7:55 PM 51.8 °F - 48.2 °F 88% 29.82 in 10.0 mi Calm Calm - N/A   Mostly Cloudy
8:15 PM 50.0 °F - 46.4 °F 87% 29.82 in 10.0 mi Calm Calm - N/A   Clear
8:35 PM 50.0 °F - 46.4 °F 87% 29.82 in 10.0 mi Calm Calm - N/A   Clear
8:55 PM 50.0 °F - 46.4 °F 87% 29.82 in 10.0 mi Calm Calm - N/A   Clear
9:15 PM 50.0 °F - 46.4 °F 87% 29.82 in 10.0 mi Calm Calm - N/A   Clear
9:35 PM 48.2 °F - 46.4 °F 93% 29.82 in 10.0 mi North 4.6 mph - N/A   Clear
9:55 PM 46.4 °F 44.3 °F 46.4 °F 100% 29.82 in 10.0 mi North 4.6 mph - N/A   Clear
10:15 PM 46.4 °F - 46.4 °F 100% 29.81 in 10.0 mi Calm Calm - N/A   Clear
10:35 PM 42.8 °F - 42.8 °F 100% 29.81 in 7.0 mi Calm Calm - N/A   Clear
10:55 PM 44.6 °F - 44.6 °F 100% 29.80 in 10.0 mi Calm Calm - N/A   Clear
11:15 PM 46.4 °F - 46.4 °F 100% 29.80 in 10.0 mi Calm Calm - N/A   Clear
11:35 PM 46.4 °F 45.2 °F 46.4 °F 100% 29.80 in 10.0 mi ENE 3.5 mph - N/A   Clear
11:55 PM 46.4 °F 44.3 °F 46.4 °F 100% 29.80 in 10.0 mi East 4.6 mph - N/A   Scattered Clouds